sat.trackr.live / text

‹ back to catalog

ISS OBJECT YL

NORAD 69796 · 1998-067YL

PAYLOAD ACTIVE UNKNOWN

§ Identity

Operator
Country
TBD
Launch date
1998-11-20
Launch site
TYMSC
Launch vehicle
Mass (kg)
RCS (m²)

External: N2YO · Heavens-Above · Gunter

§ Orbital elements

Epoch: 2026-09-19T12:22:14.186208Z

Period
92.55 min
Inclination
51.6314°
Eccentricity
0.0009459
Mean motion
15.55915770 rev/d
Perigee alt
393.1 km
Apogee alt
405.9 km
Semi-major
6,777.6 km
B*
6.0660e-4
RAAN
191.2100°
Arg perigee
168.8003°
Mean anomaly
191.3201°
Rev number
1,229

§ Raw data

ISS OBJECT YL1 69796U 98067YL  26262.51544197  .00042694  00000+0  60660-3 0  99962 69796  51.6314 191.2100 0009459 168.8003 191.3201 15.55915770 12292

JSON: /api/v1/satellites/69796 · /tle

For live sub-satellite position, see the globe view (requires WebGL).

§ Visibility from observer

Set your observer location to see the next 7 days of passes ≥ 10°. The values pass through the URL so the page stays shareable.

No JS? Fill the form by hand. The geolocation button needs JavaScript.